TimePST,TemperatureF,Dew PointF,Humidity,Sea Level PressureIn,VisibilityMPH,Wind Direction,Wind SpeedMPH,Gust SpeedMPH,PrecipitationIn,Events,Conditions,WindDirDegrees,DateUTC
12:55 AM,21.9,19.9,92,30.30,6.0,Calm,Calm,-,N/A,,Clear,0,2012-12-09 08:55:00
1:55 AM,21.9,21.0,96,30.32,2.5,Calm,Calm,-,N/A,,Mostly Cloudy,0,2012-12-09 09:55:00
2:03 AM,21.2,21.2,100,30.26,3.0,Calm,Calm,-,N/A,,Mostly Cloudy,0,2012-12-09 10:03:00
2:55 AM,24.1,21.9,91,30.32,6.0,Calm,Calm,-,N/A,,Overcast,0,2012-12-09 10:55:00
3:38 AM,24.8,21.2,86,30.25,2.5,Calm,Calm,-,N/A,,Mostly Cloudy,0,2012-12-09 11:38:00
3:45 AM,24.8,21.2,86,30.25,4.0,Calm,Calm,-,N/A,,Overcast,0,2012-12-09 11:45:00
3:55 AM,24.1,21.9,91,30.32,6.0,Calm,Calm,-,N/A,,Overcast,0,2012-12-09 11:55:00
4:55 AM,21.9,19.9,92,30.35,7.0,Calm,Calm,-,N/A,,Partly Cloudy,0,2012-12-09 12:55:00
5:55 AM,21.0,19.0,92,30.37,8.0,Calm,Calm,-,N/A,,Clear,0,2012-12-09 13:55:00
6:55 AM,19.9,18.0,92,30.40,9.0,Calm,Calm,-,N/A,,Clear,0,2012-12-09 14:55:00
7:38 AM,21.2,17.6,86,30.32,2.0,Calm,Calm,-,N/A,,Clear,0,2012-12-09 15:38:00
7:53 AM,21.2,19.4,93,30.32,3.0,Calm,Calm,-,N/A,,Clear,0,2012-12-09 15:53:00
7:55 AM,21.9,19.9,92,30.42,4.0,Calm,Calm,-,N/A,,Clear,0,2012-12-09 15:55:00
8:55 AM,28.0,24.1,85,30.43,10.0,Calm,Calm,-,N/A,,Clear,0,2012-12-09 16:55:00
9:55 AM,30.0,25.0,82,30.43,10.0,Calm,Calm,-,N/A,,Clear,0,2012-12-09 17:55:00
10:55 AM,34.0,26.1,73,30.43,10.0,Calm,Calm,-,N/A,,Clear,0,2012-12-09 18:55:00
11:55 AM,37.9,24.1,57,30.42,10.0,Calm,Calm,-,N/A,,Clear,0,2012-12-09 19:55:00
12:55 PM,39.0,25.0,57,30.39,10.0,Calm,Calm,-,N/A,,Clear,0,2012-12-09 20:55:00
1:55 PM,43.0,27.0,53,30.38,10.0,NNE,4.6,-,N/A,,Clear,30,2012-12-09 21:55:00
2:55 PM,44.1,26.1,49,30.36,10.0,Calm,Calm,-,N/A,,Clear,0,2012-12-09 22:55:00
3:55 PM,41.0,28.0,60,30.38,10.0,SSE,3.5,-,N/A,,Clear,150,2012-12-09 23:55:00
4:55 PM,36.0,27.0,70,30.41,8.0,SE,3.5,-,N/A,,Clear,130,2012-12-10 00:55:00
5:55 PM,35.1,28.0,76,30.43,10.0,Calm,Calm,-,N/A,,Overcast,0,2012-12-10 01:55:00
6:55 PM,30.0,26.1,85,30.47,10.0,Calm,Calm,-,N/A,,Clear,0,2012-12-10 02:55:00
7:55 PM,30.0,26.1,85,30.45,9.0,SSW,4.6,-,N/A,,Partly Cloudy,200,2012-12-10 03:55:00
8:55 PM,28.0,26.1,92,30.44,6.0,East,3.5,-,N/A,,Clear,80,2012-12-10 04:55:00
9:55 PM,26.1,24.1,92,30.45,4.0,Calm,Calm,-,N/A,,Clear,0,2012-12-10 05:55:00
10:55 PM,28.9,27.0,92,30.45,4.0,Calm,Calm,-,N/A,,Overcast,0,2012-12-10 06:55:00
11:32 PM,28.4,26.6,93,30.39,10.0,SE,3.5,-,N/A,,Overcast,140,2012-12-10 07:32:00
11:55 PM,30.0,27.0,88,30.43,10.0,Calm,Calm,-,N/A,,Overcast,0,2012-12-10 07:55:00